Regional Weather Roundup
Issued by NWS Newport/Morehead, NC

Home | Current Version | Previous Version | Text Only | Print | Product List | Glossary On
Versions: 1 2 3 4 5 6 7 8 9 10 11 12 13 14 15 16 17 18 19 20 21 22 23 24 25 26 27 28 29 30 31 32 33 34 35 36 37 38 39 40 41 42 43 44 45 46 47 48 49 50
000
ASUS42 KMHX 310222
RWRMHX
WEATHER ROUNDUP FOR EASTERN NORTH CAROLINA
NATIONAL WEATHER SERVICE NEWPORT/MOREHEAD CITY NC
1000 PM EDT WED JUL 30 2014

NOTE: "FAIR" INDICATES FEW OR NO CLOUDS BELOW 12,000 FEET
WITH NO SIGNIFICANT WEATHER AND/OR OBSTRUCTIONS TO VISIBILITY

NCZ015>017-031-032-045>047-102-103-310300-
NORTH COAST

CITY           SKY/WX    TMP DP  RH WIND       PRES   REMARKS
EDENTON        CLEAR     72  63  71 SE6       30.09R
ELIZABETH CITY CLEAR     71  62  73 E7        30.09R
KITTY HAWK     CLEAR     73  60  63 E5        30.08R
MANTEO         NOT AVBL

$$

NCZ045>047-081-094-103-104-310300-
CENTRAL COAST

CITY           SKY/WX    TMP DP  RH WIND       PRES   REMARKS
FRISCO         CLEAR     73  63  70 E7        30.08R
SWANQUARTER      N/A     70 N/A N/A NE3       30.03S

$$

NCZ095-097-098-100-101-310300-
SOUTHERN COAST

CITY           SKY/WX    TMP DP  RH WIND       PRES   REMARKS
BEAUFORT       MOCLDY    74  67  78 N5        30.07R
CEDAR ISLAND     N/A     77 N/A N/A NE10G17   30.12R
JACKSONVILLE   CLOUDY    77  67  71 E8        30.06R
NEWPORT        NOT AVBL
PINEY ISLAND   PTCLDY    78  68  71 E9        30.06R
WILMINGTON     MOCLDY    75  67  76 NE3       30.06R


$$

NCZ011>013-027>030-043-044-078>080-089-090>093-098-310300-
COASTAL PLAIN

CITY           SKY/WX    TMP DP  RH WIND       PRES   REMARKS
AHOSKIE        CLEAR     67  65  91 CALM      30.09R
CLINTON        CLOUDY    74  68  80 CALM      30.08R
ELIZABETHTOWN  MOCLDY    75  65  71 SE3       30.06S
GOLDSBORO      MOCLDY    70  69  98 E2        30.06R
GREENVILLE     PTCLDY    73  64  73 SE3       30.09R
HAVELOCK       MOCLDY    73  66  78 E3        30.07R
KENANSVILLE    CLOUDY    70  66  89 CALM      30.08R
KINSTON        MOCLDY    76  65  68 E6        30.08R
NEW BERN       MOCLDY    76  66  71 SE3       30.08R
RICHLANDS      CLOUDY    72  66  83 CALM      30.08R
ROANOKE RAPIDS NOT AVBL
ROCKY MOUNT    CLEAR     70  64  81 N3        30.08R
WASHINGTON     CLEAR     72  64  75 E3        30.09R
WHITEVILLE     MOCLDY    73  66  78 CALM      30.06R

$$

AMZ130-135-150-152-154-156-158-170-250-252-270-ANZ085-086-088-633-658-670-310300-
MARINE OBSERVATIONS

STATION/POSITION TIME  TEMP    WIND        PRES    WAVE   SWELL
                       AIR SEA DIR/SP/G            HT/PER HT/PER
                 (UTC) (F)     (DEG/KT/KT) (MB)    (FT/S) (FT/S)
CHESAPEAKE LIGHT NOT AVBL
BUOY 44014       0200   74 78   80/  6/  8 1018.5    2/ 8   2/ 8
DUCK             0200   74 77  110/ 10/ 12 1018.1
2E DUCK          0200                        N/A     2/ 8
OREGON INLET     0200   74 79   70/  8/ 11 1018.7
BUOY 44095       0200      78                N/A     3/ 7
20E OREGON INLET NOT AVBL
HATTERAS CG      0200   74 80   80/  7/  9 1018.6
DIAMOND BUOY     0200          VRB 12/ 14  1017.8    4/ 7   3/ 7
CAPE LOOKOUT     0200   79      80/ 14/ 16 1017.8
BEAUFORT LAB     0200   76 83   50/  3/  5 1017.6
30 SE NEW RIVER  0200   80 81   90/ 12/ 16 1017.7    4/ 6   2/ 7
5 SE WRIGHTSVILL 0200   76 81   90/ 14/ 16   N/A
BUOY 41002       0056   79 81  340/  2/  2 1016.6    5/ 6   5/ 6
BUOY 41004       0200   82 83   80/ 14/ 16 1016.0    4/ 5   2/ 8

$$



USA.gov is the U.S. government's official web portal to all federal, state and local government web resources and services.